星链-32748 (STARLINK-32748)

导读

STARLINK-32748是美国SpaceX公司星链(Starlink)星座的成员卫星,于2025年1月8日发射入轨。星链项目旨在构建低轨卫星互联网系统,为全球尤其是偏远欠发达地区提供高速低延迟宽带服务,该卫星配备相控阵天线与氪燃料推进系统,运行在近地轨道,助力星链持续扩展全球网络覆盖,进一步完善卫星互联网的服务能力,推动全球互联互通。

Basic Information
目录编号:
62524
目录名称:
STARLINK-32748
国际标识:
2025-004P
轨道中心:
EARTH
卫星名称:
星链-32748
卫星全名:
星链-32748 (STARLINK-32748)
卫星状态:
在轨 (已飞行604 天)
发射日期:
2025-01-08 UTC
国别 :
美国 (US)
星等 :
--
Orbit Information
数据来源 国际轨道数据 AOE轨道数据
星历时间 2026-09-04T11:34:08+0800
8小时前
查看轨道信息
2026-09-02T03:00:00+0800
2天前
查看轨道信息
半长轴 6861.148km 6861.224km
偏心率 0.0000384 0.0002129
轨道倾角 42.997° 43.001°
近地点辐角 273.718° 262.781°
升交点赤经 291.856° 305.170°
平近点角 86.363° 80.108°
近地点 482.747km 481.626km
远地点 483.275km 484.548km
周期 94.266分钟 94.268分钟
每日圈数 15.275928 15.275674
Detailed Information
固有亮度:
5
最大亮度:
2.5
卫星平台:
Starlink V1.0
覆盖范围:
全球
运营商:
太空探索技术公司
运营商所在国:
美国
制造商(研发单位):
太空探索技术公司
制造商所在国:
美国
使用方式:
暂无
Satellite Introduction
Starlink 计划是 SpaceX 推出的全球卫星互联网项目,通过发射低轨道卫星,为全球尤其是偏远地区提供高速、低延迟的互联网服务。自 2019 年起,Starlink 已部署数千颗卫星,旨在缩小全球数字鸿沟,推动互联网普及。该项目还为军事、航空等行业提供通信支持,带来广泛经济效益。
2D Orbit Map
3D Orbit Map
Orbit Altitude Analysis Chart
Orbit Inclination Analysis Chart
Orbit Comprehensive Analysis Chart
View Comprehensive Chart
Conjunction Data List
Event ID Objects TCA Miss Dist (km) Collision Risk Probability Collision Risk Index (CRI) Action
CDM_260906-180605-791106-252421
2026-09-06T
18:06:42+0000
0.904 km
远距离
2.401706E-5 中风险 0.63
CDM_260906-031205-791106-252421
2026-09-06T
03:12:14+0000
1.197 km
极远距离
9.11008E-6 低风险 0.54
CDM_260906-044605-791106-252421
2026-09-06T
04:46:23+0000
1.258 km
极远距离
7.6861E-6 低风险 0.53
CDM_260906-082105-485306-252421
2026-09-06T
08:21:14+0000
1.467 km
极远距离
4.700393E-6 低风险 0.48
CDM_260906-163205-791106-252421
2026-09-06T
16:32:32+0000
1.471 km
极远距离
4.567225E-6 低风险 0.48
CDM_260905-095806-252406-630621
OBJECT P (66306)
2026-09-05T
09:58:42+0000
1.669 km
极远距离
3.414563E-6 低风险 0.46
CDM_260904-000804-282706-252421
OBJECT C (42827)
2026-09-04T
00:08:58+0000
2.179 km
极远距离
2.17505E-6 低风险 0.42
CDM_260906-082105-485306-252422
2026-09-06T
08:21:14+0000
2.066 km
极远距离
1.781498E-6 低风险 0.4
CDM_260906-013805-791106-252421
2026-09-06T
01:38:05+0000
2.896 km
极远距离
9.606691E-7 极低风险 0.35